Tracking 19246 objects as of 20-Aug-2018
HD Live streaming from Space Station
objects crossing your sky now

RADUGA 6

Track RADUGA 6 now!
RADUGA 6 is classified as:


NORAD ID: 11708
Int'l Code: 1980-016A
Perigee: 35,772.8 km
Apogee: 35,794.6 km
Inclination: 12.1 °
Period: 1,435.6 minutes
Semi major axis: 42154 km
RCS: 1.2589 m2 (large)
Launch date: February 20, 1980
Source: Commonwealth of Independent States (former USSR) (CIS)
Launch site: TYURATAM MISSILE AND SPACE COMPLEX (TTMTR)
aabbcc
Your satellite tracking list
Your tracking list is empty




NASA's NSSDC Master Catalog

Two Line Element Set (TLE):
1 11708U 80016A   18231.85808649 -.00000344 +00000-0 +00000-0 0  9997
2 11708 012.1386 318.8640 0002589 275.6839 145.7022 01.00307673093509
Source of the keplerian elements: AFSPC